Content
SEND FEEDBACK

Daily
Averages
Monthly
Summary
Bulgaria

PLOVDIV, BULGARIA


Home > Europe > Bulgaria
Elevation: 607 feet     Latitude: 42 08N     Longitude: 024 45E

WEATHER
 
SELECT A DAY
Number of Records: 232,112;   Date Range: 2/20/97 - 7/28/14
 
SHARE

PRINT THIS DATA

[ ← Previous Day ]
WEATHER ALMANAC - JANUARY 31, 2013
[ Next Day → ]
[ °C ]   °F
Weather ElementAverageHighLow
Temperature38.2 °F48.2 °F (2:00 pm)28.4 °F (8:00 am)
Dewpoint33.5 °F41 °F (1:00 pm)28.4 °F (8:00 am)
Humidity85.3 %100 % (1:00 am)57 % (7:00 pm)
Barometer29.93 in30.04 in (11:00 pm)29.86 in (2:00 pm)
Wind Speed12.2 mph29.1 mph (2:00 pm)
Wind Gust29.1 mph (12:41 pm)
Weather ElementAverage
Visibility2.5 mi
Wind DirectionSSE (166.5 °)

Weather ElementTotal
Precipitation---
Heating Degree Days26.7 (Base 65)
Averaged from 26 records on January 31, 2013
WEATHER CONDITIONS BREAKOUT
WIND DIRECTION BREAKOUT
WEATHER BY HOUR - JANUARY 31, 2013
[ °C ]   °F
Local TimeTemperatureDewpointHumidityBarometerVisibilityWind DirectionWind SpeedGust SpeedPrecipitationEventsConditions
1:00 AM32.0 °F32.0 °F100 %29.98 in0.7 miVariable2.2 mphMostly Cloudy
2:00 AM32.0 °F32.0 °F100 %29.98 in0.6 miCalmMostly Cloudy
3:00 AM32.0 °F32.0 °F100 %29.95 in0.6 miVariable2.2 mphFogFog
4:00 AM32.0 °F32.0 °F100 %29.95 in0.8 miVariable2.2 mphMostly Cloudy
5:00 AM32.0 °F32.0 °F100 %29.92 in0.7 miVariable2.2 mphMostly Cloudy
6:00 AM30.2 °F30.2 °F100 %29.92 in0.9 miVariable2.2 mphMostly Cloudy
7:00 AM30.2 °F30.2 °F100 %29.89 in0.7 miESE (120°)2.2 mphScattered Clouds
8:00 AM28.4 °F28.4 °F100 %29.89 in0.8 miVariable2.2 mphMostly Cloudy
9:00 AM30.2 °F30.2 °F100 %29.89 in1.1 miCalmMostly Cloudy
10:00 AM32.0 °F30.2 °F93 %29.89 in1.2 miCalmMostly Cloudy
11:00 AM32.0 °F32.0 °F100 %29.89 in1.2 miVariable2.2 mphMostly Cloudy
11:44 AM33.8 °F32.0 °F93 %29.92 in0.8 miNW (310°)6.7 mphRainLight Rain
12:00 PM33.8 °F33.8 °F100 %29.92 in0.7 miWNW (300°)6.7 mphRainLight Rain
12:10 PM33.8 °F33.8 °F100 %29.92 in0.5 miNNW (330°)6.7 mphFog-RainLight Rain
12:41 PM39.2 °F39.2 °F100 %29.89 in4.3 miWest (280°)17.9 mph29.1 mphRainLight Rain
1:00 PM44.6 °F41.0 °F87 %29.89 in6.2 miWest (270°)26.8 mphRainLight Rain
2:00 PM48.2 °F41.0 °F76 %29.86 in6.2 miWest (270°)29.1 mphRainLight Rain
3:00 PM48.2 °F37.4 °F66 %29.86 in6.2 miWest (270°)29.1 mphMostly Cloudy
4:00 PM46.4 °F39.2 °F76 %29.89 in6.2 miWest (280°)26.8 mphMostly Cloudy
5:00 PM46.4 °F37.4 °F71 %29.89 in6.2 miWest (280°)24.6 mphScattered Clouds
6:00 PM46.4 °F33.8 °F62 %29.92 in6.2 miWest (270°)24.6 mphScattered Clouds
7:00 PM46.4 °F32.0 °F57 %29.95 inWest (270°)24.6 mphClear
8:00 PM46.4 °F32.0 °F57 %29.98 inWest (270°)22.4 mphClear
9:00 PM44.6 °F32.0 °F61 %29.98 inWest (280°)17.9 mphClear
10:00 PM46.4 °F32.0 °F57 %30.01 inWest (260°)17.9 mphClear
11:00 PM44.6 °F32.0 °F61 %30.04 inWest (270°)17.9 mphClear
Hourly data recorded from LBPD, located miles away from Plovdiv, Bulgaria







STORIES FROM OUR PARTNERS